This is the latest recevied weather packets stored in our database for station/object ON7SD-5. If no packets are shown the sender has not sent any weather packets the latest 10 day(s).
| Time | Temp. | Humidity | Pressure | Rain* | Wind** | Luminosity | Snow |
|---|---|---|---|---|---|---|---|
| 1777284444 | 18.33° C | 43% | 1022.5 hPa | 0 mm | - | 735 W/m² | - |
| 1777284144 | 17.78° C | 43% | 1022.6 hPa | 0 mm | - | 728 W/m² | - |
| 1777283844 | 17.78° C | 44% | 1022.6 hPa | 0 mm | - | 722 W/m² | - |
| 1777283244 | 17.22° C | 45% | 1022.6 hPa | 0 mm | - | 724 W/m² | - |
| 1777282344 | 17.78° C | 42% | 1022.7 hPa | 0 mm | - | 803 W/m² | - |
| 1777282044 | 17.78° C | 43% | 1022.7 hPa | 0 mm | - | 656 W/m² | - |
| 1777281744 | 17.22° C | 45% | 1022.7 hPa | 0 mm | - | 689 W/m² | - |
| 1777281444 | 16.67° C | 47% | 1022.8 hPa | 0 mm | - | 624 W/m² | - |
| 1777281144 | 16.11° C | 48% | 1022.7 hPa | 0 mm | - | 432 W/m² | - |
| 1777280844 | 16.11° C | 49% | 1022.6 hPa | 0 mm | - | 454 W/m² | - |
| 1777280544 | 16.11° C | 48% | 1022.7 hPa | 0 mm | - | 452 W/m² | - |
| 1777280244 | 15.56° C | 50% | 1022.8 hPa | 0 mm | - | 452 W/m² | - |
| 1777279944 | 15.56° C | 50% | 1022.8 hPa | 0 mm | - | 420 W/m² | - |
| 1777279644 | 15.56° C | 51% | 1022.9 hPa | 0 mm | - | 404 W/m² | - |
| 1777279044 | 15.56° C | 56% | 1022.8 hPa | 0 mm | - | 403 W/m² | - |
| 1777278744 | 15° C | 60% | 1022.8 hPa | 0 mm | - | 429 W/m² | - |
| 1777278444 | 14.44° C | 58% | 1022.8 hPa | 0 mm | - | 387 W/m² | - |
| 1777278144 | 14.44° C | 62% | 1022.9 hPa | 0 mm | - | 397 W/m² | - |
| 1777277844 | 13.89° C | 62% | 1022.9 hPa | 0 mm | - | 369 W/m² | - |
| 1777277544 | 13.33° C | 65% | 1023 hPa | 0 mm | - | 374 W/m² | - |
| 1777277244 | 13.33° C | 66% | 1023 hPa | 0 mm | - | 336 W/m² | - |
| 1777276944 | 12.78° C | 67% | 1023.1 hPa | 0 mm | - | 316 W/m² | - |
| 1777276644 | 12.78° C | 68% | 1023.1 hPa | 0 mm | - | 350 W/m² | - |
| 1777276344 | 12.22° C | 69% | 1023.1 hPa | 0 mm | - | 232 W/m² | - |
| 1777276044 | 12.22° C | 69% | 1023.1 hPa | 0 mm | - | 204 W/m² | - |
* Rain latest hour (hover to see other rain measurements)
** Current wind speed in m/s (hover to see current wind gust speed)